COSMOS 1275 DEB, 42115

Orbit data source: Space-Track

COSMOS 1275 DEB, 42115 is space debris in LEO originally from a launch on Thu, 04 Jun 1981 UTC launched from the Plesetsk Missile And Space Complex (PKMTR). Debris objects in space refer to the collection of defunct objects orbiting the Earth. Examples of debris include non-operational satellites, rocket bodies, and fragments generated from explosions, collisions, or faulty payload assembly.

Loading next visibility...
Identifier
42115, 1981-053QB
Orbit
LEO
Country
Flag of CISCIS
Related business
Manufacturer
Unknown
Mission
Spacecraft
Bus & Motor
Unknown
Mass
Unknown
Launch date (UTC)
1981-06-04 (45 years ago)
Launch vehicle
Unknown
Launch site
Plesetsk Missile And Space Complex (PKMTR)
Object type
Payload
Rocket body
Debris
Shape & HBR
Unknown shape, 0.1 m
Radar Cross Section
Small (<0.1 m²)

Expand to show TLE details & history
Last TLE update: 3 days ago

TLE from 3 days ago
0 COSMOS 1275 DEB
1 42115U 81053QB  26031.13257325  .00003402  00000-0  18804-2 0  9992
2 42115  82.6596 350.0661 0059062 322.6626  37.0450 14.10276754623334
Epoch: 2026-01-31T03:10Z
TLE epoch observation values (Epoch: 2026-01-31T03:10:54.328Z)
Latitude
-0.00005°
Longitude
171.97878°
Altitude
827.338 km
Speed
7.457 km/s
True Right ascension
23h 20m 15s
True Declination
0° 00' 00"
Sunlit
Object was in daylight at epoch
Visualization orbit readout
Latitude
Unknown
Longitude
Unknown
Altitude
Unknown
Speed
Unknown
Apparent Right ascension
Unknown
Apparent Declination
Unknown
Sunlit
N/A
Visualization observer readout
Local Sidereal Time
15:16:49
Azimuth
Unknown
Elevation
Unknown
Doppler factor
Unknown
Orbital elements
Apogee altitude
898.26 km
Perigee altitude
812.812 km
Semi-major axis
7,233.673 km
Eccentricity
0.00591
Inclination
82.6596°
RAAN
350.0661°
Arg. of periapsis
322.6626°
True anomaly
37.45515°
Mean anomaly
37.045°
Eccentric anomaly
37.24983°
Mean motion
3.52781 °/min
Orbital period
102.05 mins
BSTAR
0.0018804
Loading maneuver chart data...
Computing Atmospheric mass density...
Loading historical data...
Loading historical data...
Loading historical data...
Loading historical data...
Loading historical data...
Loading historical data...
Loading historical data...

Documentation

Showing up to 5 results
|